Regional Weather Roundup
Issued by NWS Wakefield, VA

Home | Current Version | Previous Version | Text Only | Print | Product List | Glossary Off
Versions: 1 2 3 4 5 6 7 8 9 10 11 12 13 14 15 16 17 18 19 20 21 22 23 24 25 26 27

000
ASUS41 KAKQ 221215
RWRAKQ

REGIONAL WEATHER ROUNDUP
NATIONAL WEATHER SERVICE WAKEFIELD VA
800 AM EDT SAT APR 22 2017

Note: "fair" indicates few or no clouds below 12,000 feet with no
significant weather and/or obstructions to visibility. * = Denotes
station may not report precipitation (e.g., rain,snow,etc.),
thunder or fog.

VAZ042-051-052>054-056-221300-
NORTHERN VIRGINIA

CITY           SKY/WX    TMP DP  RH WIND       PRES   REMARKS
WASH NATIONAL  CLOUDY    61  59  93 NE9       29.90R FOG
DULLES         CLOUDY    58  51  78 NW10      29.92R
FORT BELVOIR   LGT RAIN  61  59  94 NE3       29.89R
QUANTICO       LGT RAIN  62  60  93 NE12      29.90R
FREDERICKSBRG* LGT RAIN  62  62 100 N5        29.87S
STAFFORD*      DRIZZLE   61  61 100 N6        29.92S
WARRENTON      CLOUDY    61  47  59 N8        29.90R
CULPEPER*      CLOUDY    61  50  65 N12       29.91S
MANASSAS*        N/A     59  51  75 N13       29.92R
LEESBURG*      CLOUDY    55  52  88 MISG        N/A
WINCHESTER     LGT RAIN  50  46  87 N5        29.95S
FRONT ROYAL*   CLOUDY    52  50  93 CALM      29.94R
LURAY*         DRIZZLE   54  52  94 N9        29.93R
$$

VAZ048-049-060>072-079>083-221300-
CENTRAL AND SOUTH CENTRAL VIRGINIA

CITY           SKY/WX    TMP DP  RH WIND       PRES   REMARKS
RICHMOND       LGT RAIN  67  65  93 N3        29.86S
CHESTERFIELD*  PTSUNNY  N/A N/A N/A CALM      29.88R
PETERSBURG*    LGT RAIN  65  63  93 CALM      29.86F
HANOVER        CLOUDY    65  62  90 N3        29.88S FOG
TAPPAHANNOCK*  CLOUDY    63  63 100 N5        29.87R FOG
QUINTON*       CLOUDY    65  65 100 CALM      29.86R
CHARLOTTSVILLE CLOUDY    62  53  72 NE6       29.89R
GORDONSVILLE*  CLOUDY    61  53  74 N3        29.90R
ORANGE*        CLOUDY    59  50  72 NE6       29.90R
LOUISA*        CLOUDY    64  57  77 N9        29.88R
BUMPASS*       CLOUDY    64  64  99 NE3       29.87R
FARMVILLE*     CLOUDY    65  65 100 CALM      29.87R
CREWE*         CLOUDY    65  65 100 CALM      29.87S
FORT PICKETT*  CLOUDY   N/A N/A N/A CALM      29.87F
CHASE CITY*    CLOUDY    64  63  94 CALM      29.87R
CLARKSVILLE*   CLOUDY    63  63 100 S5        29.87R
SOUTH HILL*    MOSUNNY   64  64 100 S3        29.93R
LAWRENCEVILLE* PTSUNNY   65  64  97 CALM      29.87S
EMPORIA*       MOSUNNY   66  64  94 SE3       29.87F
$$

VAZ088>098-221300-
SOUTHEAST VIRGINIA

CITY           SKY/WX    TMP DP  RH WIND       PRES   REMARKS
NORFOLK        SUNNY     71  67  87 SW13      29.86R
VIRGINIA BEACH MOSUNNY   69  66  90 SW10      29.86R
NORFOLK NAVAL  MOSUNNY   70  66  87 SW10      29.87S
WEST POINT*    CLOUDY    67  65  95 SW6       29.87S
SALUDA*        CLOUDY    64  64 100 NE5       29.85S
NEWPORT NEWS   SUNNY     69  66  90 W9        29.86R
LANGLEY AFB    MOSUNNY   69  68  94 SW8       29.86R
FORT EUSTIS    NOT AVBL
WILLIAMSBURG*  MOSUNNY   70  68  94 CALM      29.88R
HR EXEC AP*    FAIR      68  64  88 SW7       29.86R
FRANKLIN*      SUNNY     67  65  93 SW3       29.88S
US460-WAKEFLD  MOSUNNY   68  66  93 SW5       29.87R
$$

VAZ020-022-025-037-045-221300-
WEST CENTRAL AND SOUTHWEST VIRGINIA

CITY           SKY/WX    TMP DP  RH WIND       PRES   REMARKS
STAUNTON*      DRIZZLE   54  51  90 N8        29.93S
WAYNESBORO*    CLOUDY    55  55  99 W6        29.92R
HOT SPRINGS VA FOG       55  55 100 CALM      29.95R VSB<1/4
LYNCHBURG      CLOUDY    63  62  97 E3        29.88R
DANVILLE       CLOUDY    63  63 100 MISG      29.88R
SOUTH BOSTON*  CLOUDY    64  63  95 CALM      29.87R
MARTINSVILLE   CLOUDY    62  62  98 CALM      29.91R FOG
ROANOKE        CLOUDY    64  62  93 CALM      29.90R
BLACKSBURG     CLOUDY    60  59  96 CALM      29.94R FOG
DUBLIN*        CLOUDY    61  58  90 SW3       29.92R
MARION*        CLOUDY    60  58  96 SW3       29.95S FOG
HILLSVILLE*    CLOUDY    58  58 100 CALM      29.92R
RICHLANDS*     TSTM      58  58 100 CALM      29.92R
WISE*          CLOUDY    54  54 100 CALM      29.93S
ABINGDON*      CLOUDY    61  61 100 CALM      29.91R
$$

MDZ021>025-VAZ099-100-221300-
SOUTHERN MARYLAND AND THE DELMARVA PENINSULA

CITY           SKY/WX    TMP DP  RH WIND       PRES   REMARKS
PATUXENT RIVER LGT RAIN  57  57 100 N9        29.87S
BAY BRIDGE APT DRIZZLE   57  55  94 NE5       29.91R FOG
LEONARDTOWN    CLOUDY    55  55 100 NE6       29.89F
DOVER          CLOUDY    55  55 100 NE7       29.89S
GEORGETOWN     CLOUDY    55  53  93 MISG      29.89S
EASTON         CLOUDY    57  55  94 NE5       29.94R
CAMBRIDGE      CLOUDY    55  54  94 CALM      29.90R
SALISBURY      LGT RAIN  54  54 100 NE8       29.88R
OCEAN CITY     CLOUDY    53  52  96 NE7       29.89R
WALLOPS ISLAND CLOUDY    58  58 100 E9        29.87S
ACCOMACK*      CLOUDY    57  56  97 E5        29.86R FOG
$$

NCZ012>017-030>032-221300-
NORTH CENTRAL AND EASTERN NORTH CAROLINA

CITY           SKY/WX    TMP DP  RH WIND       PRES   REMARKS
ROANOKE RAPIDS FAIR      66  64  94 SW6       29.88F
RALEIGH        PTSUNNY   67  64  90 SW6       29.90R
ELIZABETH CITY SUNNY     68  64  87 SW12      29.88S
AHOSKIE*         N/A     66  65  97 CALM      29.89S
EDENTON*       SUNNY     70  60  71 SW10      29.90R
CURRITUCK*     SUNNY     68  68 100 SW7       29.88S
KILL DEVIL HLS SUNNY     70  58  65 SW7       29.89R
MANTEO         SUNNY     70  59  67 SW8       29.91R
CAPE HATTERAS  MOSUNNY   70  65  84 W8        29.94S HAZE
TARBORO*       NOT AVBL
GOLDSBORO      PTSUNNY   67  64  90 SW10      29.90R
WASHINGTON     SUNNY     67  60  76 SW10      29.91S
GREENVILLE     SUNNY     68  59  73 SW9       29.93R
NEW BERN       MOSUNNY   68  65  90 VRB6      29.94S
WILMINGTON     MOSUNNY   71  68  90 SW12      29.94S
$$

VAZ048-221300-
ELSEWHERE

CITY           SKY/WX    TMP DP  RH WIND       PRES   REMARKS
HARRISBURG PA  LGT RAIN  56  47  71 CALM      29.93R
BALTIMORE      CLOUDY    59  58  96 NE7       29.91R FOG
ANNAPOLIS      CLOUDY    60  58  92 NE7       29.90R FOG
ANDREWS AFB    CLOUDY    58  57  96 NE7       29.89S FOG
PHILADELPHIA   LGT RAIN  55  51  86 NE6       29.92R FOG
HENDERSON NC   PTSUNNY   63  61  94 SW5       29.89R
GREENSBORO     CLOUDY    64  64 100 S6        29.88R
ROCKY MOUNT    SUNNY     67  63  87 SW8       29.90R
$$

VAZ100-221300-
MARINE

STATION/POSITION TIME  TEMP    WIND        PRES    WAVE   SWELL
                       AIR SEA DIR/SP/G            HT/PER HT/PER
                 (UTC) (F)     (DEG/KT/KT) (MB)    (FT/S) (FT/S)
CAPE MAY NJ      1148   54 56   60/  3/  6 1012.3F
LEWES DE         1148   53 54   70/ 10/ 12 1012.1F
15NM E FENWICK I 1150   52 53   20/ 14/ 16 1012.4R   4/11   3/11
OCEAN-CITY-INLET 1148   53 56   60/  4/  9 1012.3F
WACHAPREAGUE VA  1148   57 68   40/ 11/ 13 1010.9R
THOMAS POINT MD  1200   58 60   40/ 12/ 13   N/A
GOOSES REEF MD   1200   58 58   40/ 12/ 14 1012.7    1/ 2
COVE POINT MD    1148   57      50/  8/ 10 1012.6R
SOLOMONS ISLAND  1148   57 62   30/  5/  7   N/A
BISHOPS HEAD MD  1148   58 69   20/  9/ 12 1011.7S
PINEY POINT MD   1148          100/  3/  5   N/A
POTOMAC MD       1200   58 62   40/ 10/ 12 1010.4    1/ 2
CAMBRIDGE MD     1148   56 65   10/  5/  7 1011.5R
LEWISETTA VA     1148   60 65   60/  4/  7 1011.2F
RAPPAHANNOCK LGT 1148          160/  3/  4 1011.5R
STINGRAY PT      1150   63      20/  8/  8 1011.1R
YORK RVR RNG VA  1148   68     260/ 10/ 11 1010.3R
YORKTOWN VA      1148   68 64  240/  9/ 12 1010.6R
JAMESTOWN VA     1200   68 69  220/ 10/ 12   N/A     0
DOMINION TERM VA 1148   68     240/  8/  9 1011.2R
KIPTOPEKE VA     1142      62  230/  5/  6   N/A
CHES BAY BRIDGE  1148   68 56  230/ 10/ 11 1010.9R
CAPE HENRY VA    1148   69     220/  6/  8   N/A
WILLOUBY STN VA  1148   68     220/ 11/ 12 1012.0R
S CRANEY ISL VA  1148   69     220/  8/ 11 1011.1R
CAPE HENRY BUOY  1142      60                N/A     3/12   2/12
1ST LANDING BUOY 1200   67 62              1011.1    1/ 5
CAPE CHARLES BUO 1151      61                N/A     3/13   2/13
64NM E OF VA BCH 1150   59 56  210/  8/ 10 1012.0R   4/ 6   3/ 6
DUCK PIER NC     1148   68 54  230/ 11/ 16 1011.4S
44100 DUCK FRF   1135      59                N/A     3/12   2/12
44056 DUCK FRF   1200      57                N/A     2/10   2/11
OREGON INLET NC  1142   70 73  220/ 14/ 16 1012.5R
HATTERAS NC      1148   69 71  240/  9/ 12 1013.5R
DIAMOND SHLS NC  1150   74 75  250/ 21/ 25 1013.6R   6/ 6   2/11
CAPE LOOKOUT NC  1100   69     230/  8/ 11 1013.4R
$$




USA.gov is the U.S. government's official web portal to all federal, state and local government web resources and services.